Location: Helstorf
(52.5868°N, 9.5862°E)
Time: 11:00:36
(UTC+00:00)

CZ-4C R/B - Pass Details

Date: 15 May 2026
Orbit: 474 x 1503 km, 63.4° (Epoch: 6 June)

Event Time Altitude Azimuth Distance (km) Brightness Sun altitude
Rises 22:43:16 0° 295° (WNW) 3,174 5.7 -18.0°
Reaches altitude 10° 22:45:41 10° 307° (NW) 2,396 5.2 -18.0°
Maximum altitude 22:50:40 31° 9° (N) 1,617 4.3 -18.1°
Drops below altitude 10° 22:56:56 10° 70° (ENE) 3,047 5.3 -18.2°
Sets 23:00:23 0° 80° (E) 4,183 5.9 -18.3°
